| time (UTC) | temp F | wind direction | speed knots | gust knots | rain 1hr in | rain 24hr in | rain mn in | humidity % | barometer mb |
| 20260831053036 | 50 | 150 | 1.7 | 3.5 | 0.00 | 0.00 | 0.00 | 83 | 1019.5 |
| 20260831050036 | 51 | 144 | 2.6 | 4.3 | 0.00 | 0.00 | 0.00 | 82 | 1019.7 |
| 20260831044535 | 52 | 156 | 2.6 | 5.2 | 0.00 | 0.00 | 0.00 | 81 | 1019.8 |
| 20260831043035 | 52 | 156 | 2.6 | 4.3 | 0.00 | 0.00 | 0.00 | 81 | 1019.8 |
| 20260831041542 | 52 | 158 | 3.5 | 4.3 | 0.00 | 0.00 | 0.00 | 81 | 1019.8 |
| 20260831040036 | 52 | 157 | 4.3 | 5.2 | 0.00 | 0.00 | 0.00 | 81 | 1019.7 |
| 20260831034534 | 52 | 158 | 3.5 | 5.2 | 0.00 | 0.00 | 0.00 | 80 | 1019.6 |
| 20260831033035 | 54 | 157 | 1.7 | 2.6 | 0.00 | 0.00 | 0.00 | 76 | 1019.6 |
| 20260831031537 | 57 | 157 | 1.7 | 2.6 | 0.00 | 0.00 | 0.00 | 70 | 1019.5 |
| 20260831030030 | 60 | 307 | 1.7 | 4.3 | 0.00 | 0.00 | 0.00 | 61 | 1019.6 |
| 20260831024610 | 62 | 312 | 3.5 | 8.7 | 0.00 | 0.00 | 0.00 | 57 | 1019.5 |
| 20260831023110 | 63 | 307 | 3.5 | 7.8 | 0.00 | 0.00 | 0.00 | 55 | 1019.4 |
| 20260831021608 | 64 | 316 | 4.3 | 9.6 | 0.00 | 0.00 | 0.00 | 53 | 1019.5 |
| 20260831020109 | 65 | 321 | 4.3 | 7.8 | 0.00 | 0.00 | 0.00 | 51 | 1019.4 |
| 20260831014535 | 66 | 314 | 3.5 | 9.6 | 0.00 | 0.00 | 0.00 | 50 | 1019.5 |
| 20260831013030 | 67 | 313 | 3.5 | 8.7 | 0.00 | 0.00 | 0.00 | 48 | 1019.6 |
| 20260831011530 | 68 | 296 | 5.2 | 10.4 | 0.00 | 0.00 | 0.00 | 45 | 1019.6 |
| 20260831010035 | 71 | 285 | 4.3 | 9.6 | 0.00 | 0.00 | 0.00 | 42 | 1019.6 |
| 20260831000037 | 74 | 328 | 3.5 | 11.3 | 0.00 | 0.00 | 0.00 | 42 | 1019.6 |
| 20260830234537 | 75 | 335 | 4.3 | 10.4 | 0.00 | 0.00 | 0.00 | 41 | 1019.7 |
| 20260830231609 | 74 | 324 | 4.3 | 10.4 | 0.00 | 0.00 | 0.00 | 41 | 1019.7 |
| 20260830230035 | 74 | 339 | 4.3 | 9.6 | 0.00 | 0.00 | 0.00 | 41 | 1019.9 |
| 20260830224537 | 74 | 326 | 5.2 | 10.4 | 0.00 | 0.00 | 0.00 | 42 | 1020.0 |
| 20260830223035 | 74 | 337 | 4.3 | 9.6 | 0.00 | 0.00 | 0.00 | 42 | 1020.2 |
| 20260830221534 | 73 | 333 | 4.3 | 8.7 | 0.00 | 0.00 | 0.00 | 43 | 1020.5 |
| 20260830220032 | 73 | 328 | 5.2 | 11.3 | 0.00 | 0.00 | 0.00 | 43 | 1020.6 |
| 20260830213031 | 72 | 345 | 3.5 | 8.7 | 0.00 | 0.00 | 0.00 | 44 | 1021.0 |
| 20260830211531 | 72 | 351 | 3.5 | 7.8 | 0.00 | 0.00 | 0.00 | 45 | 1021.1 |
| 20260830203035 | 71 | 359 | 3.5 | 7.8 | 0.00 | 0.00 | 0.00 | 47 | 1021.4 |
| 20260830200037 | 68 | 322 | 1.7 | 6.1 | 0.00 | 0.00 | 0.00 | 47 | 1021.8 |
| 20260830191534 | 67 | 313 | 2.6 | 6.1 | 0.00 | 0.00 | 0.00 | 45 | 1022.0 |
| 20260830190109 | 68 | 346 | 0.9 | 6.1 | 0.00 | 0.00 | 0.00 | 46 | 1022.1 |
| 20260830184535 | 68 | 39 | 0.9 | 5.2 | 0.00 | 0.00 | 0.00 | 47 | 1022.3 |
| 20260830183036 | 66 | 79 | 0.9 | 6.1 | 0.00 | 0.00 | 0.00 | 48 | 1022.4 |
| 20260830181531 | 66 | 114 | 0.9 | 4.3 | 0.00 | 0.00 | 0.00 | 48 | 1022.5 |
| 20260830180035 | 65 | 324 | 0.9 | 6.1 | 0.00 | 0.00 | 0.00 | 50 | 1022.5 |
| 20260830171529 | 64 | 52 | 0.9 | 4.3 | 0.00 | 0.00 | 0.00 | 52 | 1022.5 |
| 20260830170034 | 63 | 59 | 0.9 | 3.5 | 0.00 | 0.00 | 0.00 | 56 | 1022.7 |
| 20260830164535 | 61 | 63 | 0.9 | 3.5 | 0.00 | 0.00 | 0.00 | 60 | 1022.9 |
| 20260830163033 | 58 | 80 | 0.9 | 3.5 | 0.00 | 0.00 | 0.00 | 66 | 1023.1 |
| 20260830161534 | 55 | 134 | 0.9 | 3.5 | 0.00 | 0.00 | 0.00 | 73 | 1023.2 |
| 20260830160109 | 53 | 149 | 0.9 | 3.5 | 0.00 | 0.00 | 0.00 | 76 | 1023.3 |
| 20260830154535 | 52 | 137 | 0.9 | 4.3 | 0.00 | 0.00 | 0.00 | 83 | 1023.4 |
| 20260830153034 | 49 | 134 | 1.7 | 4.3 | 0.00 | 0.00 | 0.00 | 88 | 1023.5 |
| 20260830150033 | 42 | 143 | 1.7 | 4.3 | 0.00 | 0.00 | 0.00 | 95 | 1023.3 |
| 20260830144534 | 40 | 156 | 0.9 | 3.5 | 0.00 | 0.00 | 0.00 | 95 | 1023.3 |
| 20260830143036 | 40 | 147 | 1.7 | 3.5 | 0.00 | 0.00 | 0.00 | 95 | 1023.2 |
| 20260830141535 | 40 | 158 | 1.7 | 3.5 | 0.00 | 0.00 | 0.00 | 94 | 1022.9 |
| 20260830140034 | 40 | 159 | 2.6 | 3.5 | 0.00 | 0.00 | 0.00 | 94 | 1022.8 |
| 20260830134529 | 40 | 144 | 2.6 | 3.5 | 0.00 | 0.00 | 0.00 | 93 | 1022.8 |
| 20260830133036 | 41 | 146 | 2.6 | 3.5 | 0.00 | 0.00 | 0.00 | 93 | 1022.7 |
| 20260830131611 | 40 | 150 | 2.6 | 4.3 | 0.00 | 0.00 | 0.00 | 94 | 1022.5 |
| 20260830130033 | 40 | 145 | 2.6 | 6.1 | 0.00 | 0.00 | 0.00 | 93 | 1022.5 |
| 20260830124535 | 40 | 146 | 1.7 | 4.3 | 0.00 | 0.00 | 0.00 | 92 | 1022.5 |
| 20260830123038 | 41 | 165 | 2.6 | 4.3 | 0.00 | 0.00 | 0.00 | 92 | 1022.5 |
| 20260830121533 | 42 | 159 | 2.6 | 4.3 | 0.00 | 0.00 | 0.00 | 92 | 1022.7 |
| 20260830120150 | 42 | 147 | 3.5 | 7.0 | 0.00 | 0.00 | 0.00 | 92 | 1022.7 |
| 20260830114606 | 41 | 140 | 3.5 | 6.1 | 0.00 | 0.00 | 0.00 | 92 | 1022.7 |
| 20260830113036 | 41 | 136 | 2.6 | 5.2 | 0.00 | 0.00 | 0.00 | 92 | 1022.7 |
| 20260830111535 | 42 | 141 | 2.6 | 5.2 | 0.00 | 0.00 | 0.00 | 91 | 1022.7 |
| 20260830110033 | 42 | 149 | 2.6 | 4.3 | 0.00 | 0.00 | 0.00 | 91 | 1022.8 |
| 20260830101537 | 43 | 157 | 2.6 | 6.1 | 0.00 | 0.00 | 0.00 | 91 | 1022.7 |
| 20260830100037 | 42 | 154 | 2.6 | 6.1 | 0.00 | 0.00 | 0.00 | 92 | 1022.7 |
| 20260830094534 | 42 | 149 | 3.5 | 7.0 | 0.00 | 0.00 | 0.00 | 92 | 1022.6 |
| 20260830093109 | 42 | 152 | 3.5 | 6.1 | 0.00 | 0.00 | 0.00 | 92 | 1022.7 |
| 20260830091537 | 42 | 148 | 3.5 | 5.2 | 0.00 | 0.00 | 0.00 | 93 | 1022.8 |
| 20260830084536 | 43 | 149 | 2.6 | 4.3 | 0.00 | 0.00 | 0.00 | 91 | 1022.7 |
| 20260830081531 | 44 | 147 | 2.6 | 6.1 | 0.00 | 0.00 | 0.00 | 92 | 1022.9 |
| 20260830080032 | 43 | 151 | 1.7 | 5.2 | 0.00 | 0.00 | 0.00 | 92 | 1023.0 |
| 20260830073109 | 44 | 22 | 0.0 | 1.7 | 0.00 | 0.00 | 0.00 | 91 | 1022.8 |
| 20260830071535 | 44 | 263 | 0.9 | 3.5 | 0.00 | 0.00 | 0.00 | 91 | 1022.8 |
| 20260830070036 | 45 | 140 | 0.0 | 2.6 | 0.00 | 0.00 | 0.00 | 91 | 1022.8 |
| 20260830064531 | 45 | 76 | 0.9 | 4.3 | 0.00 | 0.00 | 0.00 | 92 | 1022.8 |
| 20260830063036 | 44 | 129 | 0.9 | 3.5 | 0.00 | 0.00 | 0.00 | 92 | 1022.7 |
| 20260830061535 | 45 | 145 | 1.7 | 3.5 | 0.00 | 0.00 | 0.00 | 91 | 1022.9 |